Weather History for Monroe, WI

Change the Weather History Date:

Friday, October 3, 2014

  Actual Average Record
Temperature  
Mean Temperature 52 °F -  
Max Temperature 62 °F 0 °F 86 °F (1997)
Min Temperature 41 °F - 35 °F (1999)
Degree Days  
Heating Degree Days 14    
Growing Degree Days 2 (Base 50)    
Moisture  
Dew Point 43 °F    
Average Humidity 79    
Maximum Humidity 100    
Minimum Humidity 61    
Precipitation  
Precipitation 0.79 in - - ()
Sea Level Pressure  
Sea Level Pressure 29.69 in    
Wind  
Wind Speed 15 mph (West)    
Max Wind Speed 25 mph    
Max Gust Speed 37 mph    
Visibility 9 miles    
Events Rain    
Averages and records for this station are not official NWS values.
T = Trace of Precipitation, MM = Missing Value Source: NWS Daily Summary

Daily Weather History Graph

Daily Weather History Graph

Search for Another Location

Airport:

Trip Planner

Search our weather history database for the weather conditions in past years. The results will help you decide how hot, cold, wet, or windy it might be!

Date:

Astronomy

Oct. 03, 2014 Rise Set
Actual Time 6:57 AM CDT 6:36 PM CDT
Civil Twilight 6:29 AM CDT 7:04 PM CDT
Nautical Twilight 5:56 AM CDT 7:36 PM CDT
Astronomical Twilight 5:23 AM CDT 8:09 PM CDT
Moon 3:35 PM CDT (10/3) 1:11 AM CDT (10/3)
Length of Visible Light 12h 34m
Length of Day
11h 38m
Waxing Gibbous, 71% of the Moon is Illuminated
Oct 3
Waxing Gibbous
Oct 8
Full
Oct 15
Last Quarter
Oct 23
New
Oct 30
First Quarter

Hourly Weather History & Observations

Time (CDT) Temp. Windchill Dew Point Humidity Pressure Visibility Wind Dir Wind Speed Gust Speed Precip Events Conditions
12:15 AM 62.6 °F - 60.8 °F 94% 29.59 in 7.0 mi South 9.2 mph - N/A   Overcast
12:35 AM 62.6 °F - 60.8 °F 94% 29.58 in 7.0 mi SSW 6.9 mph - N/A   Drizzle
12:55 AM 62.6 °F - 60.8 °F 94% 29.58 in 5.0 mi SSW 9.2 mph - 0.02 in Rain Heavy Rain
1:15 AM 62.6 °F - 60.8 °F 94% 29.57 in 4.0 mi SSW 5.8 mph - 0.04 in Rain Rain
1:35 AM 59.0 °F - 59.0 °F 100% 29.58 in 4.0 mi NW 16.1 mph 28.8 mph 0.13 in Rain Heavy Rain
1:55 AM 57.2 °F - 55.4 °F 94% 29.57 in 5.0 mi NNW 10.4 mph 19.6 mph 0.21 in Rain Rain
2:15 AM 55.4 °F - 53.6 °F 94% 29.57 in 5.0 mi NNW 13.8 mph 23.0 mph 0.07 in Rain Heavy Rain
2:35 AM 55.4 °F - 53.6 °F 94% 29.57 in 5.0 mi NNW 13.8 mph 23.0 mph 0.16 in Rain Heavy Rain
2:55 AM 53.6 °F - 53.6 °F 100% 29.57 in 7.0 mi NNW 10.4 mph 19.6 mph 0.23 in Rain Heavy Rain
3:15 AM 53.6 °F - 53.6 °F 100% 29.57 in 5.0 mi NW 16.1 mph 24.2 mph 0.08 in Rain Heavy Rain
3:35 AM 53.6 °F - 51.8 °F 94% 29.57 in 5.0 mi NW 13.8 mph 24.2 mph 0.15 in Rain Rain
3:55 AM 53.6 °F - 51.8 °F 94% 29.57 in 7.0 mi NW 15.0 mph 27.6 mph 0.18 in Rain Rain
4:15 AM 53.6 °F - 51.8 °F 94% 29.58 in 5.0 mi NW 16.1 mph 23.0 mph 0.05 in Rain Rain
4:35 AM 53.6 °F - 51.8 °F 94% 29.58 in 7.0 mi NW 15.0 mph 20.7 mph 0.10 in Rain Rain
4:55 AM 53.6 °F - 51.8 °F 94% 29.58 in 7.0 mi NW 12.7 mph 21.9 mph 0.13 in Rain Rain
5:15 AM 53.6 °F - 51.8 °F 94% 29.57 in 10.0 mi NW 12.7 mph 19.6 mph 0.01 in Rain Light Rain
5:35 AM 53.6 °F - 51.8 °F 94% 29.58 in 10.0 mi NW 13.8 mph 19.6 mph 0.02 in   Light Drizzle
5:55 AM 53.6 °F - 51.8 °F 94% 29.58 in 10.0 mi WNW 12.7 mph 21.9 mph 0.02 in   Overcast
6:15 AM 53.6 °F - 51.8 °F 94% 29.58 in 10.0 mi WNW 17.3 mph 21.9 mph N/A   Overcast
6:35 AM 51.8 °F - 50.0 °F 94% 29.59 in 10.0 mi NW 15.0 mph 29.9 mph N/A   Mostly Cloudy
6:55 AM 51.8 °F - 50.0 °F 94% 29.58 in 10.0 mi NW 9.2 mph - N/A   Mostly Cloudy
7:10 AM 51.8 °F - 50.0 °F 94% 29.59 in 10.0 mi WNW 12.7 mph 21.9 mph N/A   Mostly Cloudy
7:35 AM 51.8 °F - 48.2 °F 88% 29.60 in 10.0 mi WNW 15.0 mph 23.0 mph N/A   Scattered Clouds
7:55 AM 51.8 °F - 48.2 °F 88% 29.61 in 10.0 mi WNW 16.1 mph 24.2 mph N/A   Mostly Cloudy
8:15 AM 51.8 °F - 50.0 °F 94% 29.63 in 10.0 mi West 16.1 mph 21.9 mph N/A   Overcast
8:35 AM 51.8 °F - 48.2 °F 88% 29.65 in 7.0 mi West 17.3 mph 23.0 mph N/A   Overcast
8:55 AM 51.8 °F - 48.2 °F 88% 29.65 in 10.0 mi West 16.1 mph 27.6 mph N/A   Overcast
9:15 AM 51.8 °F - 48.2 °F 88% 29.66 in 10.0 mi West 15.0 mph 24.2 mph N/A   Overcast
9:35 AM 51.8 °F - 46.4 °F 82% 29.67 in 10.0 mi West 21.9 mph 27.6 mph N/A   Overcast
9:55 AM 51.8 °F - 46.4 °F 82% 29.67 in 10.0 mi West 17.3 mph 26.5 mph N/A   Overcast
10:15 AM 51.8 °F - 46.4 °F 82% 29.68 in 10.0 mi West 18.4 mph 28.8 mph N/A   Overcast
10:35 AM 51.8 °F - 46.4 °F 82% 29.68 in 10.0 mi West 15.0 mph 26.5 mph N/A   Overcast
10:55 AM 51.8 °F - 44.6 °F 76% 29.69 in 10.0 mi West 20.7 mph 32.2 mph N/A   Overcast
11:15 AM 50.0 °F - 44.6 °F 82% 29.70 in 10.0 mi West 17.3 mph 26.5 mph N/A   Overcast
11:35 AM 48.2 °F - 44.6 °F 87% 29.71 in 10.0 mi West 20.7 mph 29.9 mph N/A   Overcast
11:55 AM 46.4 °F 39.5 °F 42.8 °F 87% 29.72 in 10.0 mi West 17.3 mph 26.5 mph N/A   Overcast
12:15 PM 48.2 °F - 41.0 °F 76% 29.72 in 10.0 mi West 24.2 mph 35.7 mph N/A   Overcast
12:35 PM 46.4 °F 38.5 °F 41.0 °F 81% 29.73 in 7.0 mi West 21.9 mph 34.5 mph N/A   Overcast
12:55 PM 46.4 °F 38.3 °F 39.2 °F 76% 29.73 in 10.0 mi West 23.0 mph 31.1 mph N/A   Overcast
1:15 PM 46.4 °F 37.9 °F 37.4 °F 71% 29.73 in 10.0 mi WNW 25.3 mph 36.8 mph N/A   Overcast
1:35 PM 46.4 °F 39.5 °F 37.4 °F 71% 29.74 in 10.0 mi West 17.3 mph 25.3 mph N/A   Overcast
1:55 PM 46.4 °F 37.9 °F 37.4 °F 71% 29.74 in 10.0 mi West 25.3 mph 31.1 mph N/A   Overcast
2:15 PM 46.4 °F 39.0 °F 37.4 °F 71% 29.73 in 10.0 mi West 19.6 mph 27.6 mph N/A   Overcast
2:35 PM 46.4 °F 39.8 °F 37.4 °F 71% 29.73 in 10.0 mi West 16.1 mph 29.9 mph N/A   Overcast
2:55 PM 48.2 °F - 37.4 °F 66% 29.73 in 10.0 mi West 20.7 mph 31.1 mph N/A   Overcast
3:15 PM 46.4 °F 37.9 °F 37.4 °F 71% 29.75 in 10.0 mi West 25.3 mph 32.2 mph N/A   Overcast
3:35 PM 46.4 °F 38.5 °F 37.4 °F 71% 29.75 in 10.0 mi West 21.9 mph 31.1 mph N/A   Overcast
3:55 PM 46.4 °F 38.5 °F 37.4 °F 71% 29.75 in 10.0 mi West 21.9 mph 27.6 mph N/A   Overcast
4:15 PM 46.4 °F 38.7 °F 35.6 °F 66% 29.75 in 10.0 mi West 20.7 mph 34.5 mph N/A   Overcast
4:35 PM 46.4 °F 39.8 °F 37.4 °F 71% 29.76 in 10.0 mi West 16.1 mph 25.3 mph N/A Rain Light Rain
4:55 PM 44.6 °F 35.7 °F 35.6 °F 71% 29.76 in 10.0 mi West 24.2 mph 31.1 mph N/A   Overcast
5:15 PM 46.4 °F 38.7 °F 35.6 °F 66% 29.77 in 10.0 mi West 20.7 mph 31.1 mph N/A   Overcast
5:35 PM 46.4 °F 39.5 °F 35.6 °F 66% 29.77 in 10.0 mi West 17.3 mph 29.9 mph N/A   Overcast
5:55 PM 46.4 °F 38.5 °F 33.8 °F 62% 29.78 in 10.0 mi West 21.9 mph 29.9 mph N/A   Overcast
6:15 PM 44.6 °F 36.6 °F 33.8 °F 66% 29.78 in 10.0 mi West 19.6 mph 26.5 mph N/A   Overcast
6:35 PM 44.6 °F 36.6 °F 32.0 °F 61% 29.78 in 10.0 mi West 19.6 mph 25.3 mph N/A   Overcast
6:55 PM 44.6 °F 36.4 °F 32.0 °F 61% 29.79 in 10.0 mi West 20.7 mph 26.5 mph N/A   Mostly Cloudy
7:15 PM 44.6 °F 36.1 °F 32.0 °F 61% 29.79 in 10.0 mi West 21.9 mph 29.9 mph N/A   Overcast
7:35 PM 44.6 °F 36.4 °F 32.0 °F 61% 29.80 in 10.0 mi West 20.7 mph 29.9 mph N/A   Overcast
7:55 PM 42.8 °F 34.3 °F 32.0 °F 66% 29.80 in 10.0 mi West 19.6 mph 33.4 mph N/A   Overcast
8:15 PM 42.8 °F 34.3 °F 32.0 °F 66% 29.80 in 10.0 mi West 19.6 mph 27.6 mph N/A   Overcast
8:35 PM 42.8 °F 34.5 °F 30.2 °F 61% 29.80 in 10.0 mi West 18.4 mph 25.3 mph N/A   Overcast
8:55 PM 42.8 °F 35.1 °F 30.2 °F 61% 29.80 in 10.0 mi West 16.1 mph 24.2 mph N/A   Overcast
9:15 PM 42.8 °F 35.1 °F 30.2 °F 61% 29.80 in 10.0 mi West 16.1 mph 25.3 mph N/A   Overcast
9:35 PM 41.0 °F 32.5 °F 30.2 °F 65% 29.80 in 10.0 mi West 17.3 mph 25.3 mph N/A   Overcast
9:55 PM 41.0 °F 32.8 °F 30.2 °F 65% 29.79 in 10.0 mi West 16.1 mph 23.0 mph N/A   Overcast
10:15 PM 41.0 °F 32.2 °F 30.2 °F 65% 29.78 in 10.0 mi West 18.4 mph 24.2 mph N/A   Overcast
10:35 PM 41.0 °F 32.2 °F 28.4 °F 61% 29.78 in 10.0 mi West 18.4 mph 31.1 mph N/A   Overcast
10:55 PM 41.0 °F 32.5 °F 28.4 °F 61% 29.76 in 10.0 mi West 17.3 mph 25.3 mph N/A   Overcast
11:15 PM 41.0 °F 32.5 °F 28.4 °F 61% 29.76 in 10.0 mi West 17.3 mph 23.0 mph N/A   Overcast
11:35 PM 41.0 °F 32.2 °F 28.4 °F 61% 29.75 in 10.0 mi West 18.4 mph 24.2 mph N/A   Overcast
11:55 PM 41.0 °F 33.1 °F 28.4 °F 61% 29.75 in 10.0 mi West 15.0 mph 25.3 mph N/A   Overcast